Location: ????????
(55.3939°N, 37.4780°E)
Time: 09:22:19
(UTC+00:00)

BREEZE-M DEB (TANK) - Pass Details

Date: 14 April 2026
Orbit: 311 x 13096 km, 49.6° (Epoch: 19 May)

Event Time Altitude Azimuth Distance (km) Brightness Sun altitude
Rises 17:17:02 0° 224° (SW) 2,039 6.0 -6.6°
Reaches altitude 10° 17:18:58 10° 201° (SSW) 1,240 4.6 -6.8°
Maximum altitude 17:20:44 19° 150° (SSE) 1,008 3.7 -7.0°
Drops below altitude 10° 17:23:14 10° 103° (ESE) 1,818 4.8 -7.3°
Enters shadow 17:24:04 - 97° (E) 2,191 5.3 -7.4°
